[[{"header":{"parameterUnit":"m.s-1","parameterCategory":1,"la1":30.2991,"la2":30.254,"lo1":-89.0895,"lo2":-89.0444,"dy":0.0017,"dx":0.0017,"nx":28,"ny":28,"refTime":"2024-04-30T21:00:00:Z","depth":0,"parameterNumber":2,"parameterNumberName":"U-component_of_WINDS"},"data":[0,0,0,0,0,0,0,0,0,0,0,0,0,0,0,0,0,0,0,0,0,0,0,0,0,0,0,0,0,0,0,0,0,0,0,0,0,0,0,0,0,0,0,0,0,0,0,0,0,0,0,0,0,0,0,0,0,0,-1.518,-1.518,0,-1.5167,-1.5167,-1.5167,-1.5135,-1.5134,-1.5134,-1.5133,-1.5121,-1.5121,-1.5122,0,0,0,0,0,0,0,0,0,0,0,0,0,-1.5178,-1.5178,-1.518,-1.518,-1.518,-1.5167,-1.5167,-1.5167,-1.5135,-1.5134,-1.5133,-1.5133,-1.5121,-1.5121,-1.5122,0,0,0,0,0,0,0,0,0,0,0,0,0,-1.5173,-1.5178,-1.518,-1.5162,-1.516,-1.5167,-1.5167,-1.5167,-1.5135,-1.5134,-1.5133,-1.5132,-1.5121,-1.5121,-1.5122,-1.5145,0,0,-1.5123,-1.5123,0,0,0,0,0,0,0,0,-1.5174,-1.5174,-1.5165,-1.5163,-1.5162,-1.5152,-1.5162,-1.5159,-1.5136,-1.5145,-1.5133,-1.5132,-1.5132,-1.5131,-1.5131,-1.5144,-1.5144,-1.5123,-1.5123,-1.5124,-1.5124,0,0,0,0,0,0,0,-1.5174,-1.5174,-1.5175,-1.5165,-1.5163,-1.5155,-1.5154,-1.5161,-1.5144,-1.5144,-1.5142,-1.5141,-1.5131,-1.5131,-1.5131,-1.5143,-1.5123,-1.5123,-1.5124,-1.5124,-1.5175,-1.5176,0,0,0,0,0,0,-1.5177,-1.5174,-1.5175,-1.5174,-1.5165,-1.5156,-1.5154,-1.5156,-1.5144,-1.5141,-1.5141,-1.5139,-1.5131,-1.513,-1.513,-1.5157,-1.5124,-1.5124,-1.5124,-1.5174,-1.5175,-1.5176,0,0,0,0,0,0,-1.5177,-1.5177,-1.5176,-1.5174,-1.5173,-1.5157,-1.5159,-1.5156,-1.5156,-1.5142,-1.5139,-1.5145,-1.513,-1.513,-1.5141,-1.5156,-1.5124,-1.5125,-1.5173,-1.5174,-1.5176,-1.521,0,0,0,0,0,0,-1.5177,-1.5177,-1.5186,-1.5174,-1.5173,-1.5187,-1.516,-1.5157,-1.5157,-1.5154,-1.5144,-1.5142,-1.5129,-1.5141,-1.5142,-1.5156,-1.5125,-1.5171,-1.5173,-1.5175,-1.5207,-1.5212,-1.5217,0,0,0,0,0,-1.5177,-1.5196,-1.5186,-1.5187,-1.5183,-1.5188,-1.5187,-1.5172,-1.5158,-1.5167,-1.5158,-1.5142,-1.5154,-1.5142,-1.5143,-1.5158,-1.517,-1.5173,-1.5175,-1.5205,-1.5211,-1.5216,0,0,0,0,0,0,-1.521,-1.5194,-1.5183,-1.5199,-1.5195,-1.5182,-1.5192,-1.5179,-1.5179,-1.5176,-1.5157,-1.5156,-1.517,-1.5165,-1.5152,-1.5179,-1.516,-1.5162,-1.5182,-1.5188,-1.5193,-1.5193,-1.5125,0,0,0,0,0,-1.5219,-1.5223,-1.521,-1.5225,-1.5223,-1.5208,-1.521,-1.5198,-1.5193,-1.5192,-1.5184,-1.518,-1.5183,-1.5185,-1.5187,-1.5206,-1.5204,-1.5217,-1.5221,-1.5225,-1.5228,-1.5238,-1.5244,-1.5184,-1.5184,-1.5184,0,0,-1.5238,-1.523,-1.5234,-1.5231,-1.5227,-1.5232,-1.5207,-1.5214,-1.5218,-1.5193,-1.5203,-1.5197,-1.5192,-1.5208,-1.5214,-1.5204,-1.5244,-1.5228,-1.5232,-1.5232,-1.5241,-1.5247,-1.5252,-1.5186,-1.5186,-1.5185,0,0,-1.5275,-1.5269,-1.5281,-1.5277,-1.527,-1.526,-1.5264,-1.5253,-1.5248,-1.5258,-1.524,-1.5244,-1.525,-1.5247,-1.5246,-1.5282,-1.5268,-1.5283,-1.5308,-1.5318,-1.5323,-1.5327,-1.534,-1.5345,-1.5286,-1.5286,-1.5286,0,-1.5299,-1.5306,-1.5289,-1.5297,-1.5297,-1.5274,-1.5286,-1.5284,-1.5278,-1.5279,-1.5267,-1.5274,-1.5268,-1.5283,-1.5292,-1.5292,-1.5295,-1.5284,-1.5323,-1.5327,-1.5331,-1.5343,-1.5348,-1.5288,-1.5288,-1.5288,-1.5287,0,-1.5336,-1.5342,-1.5352,-1.5347,-1.5348,-1.5359,-1.5344,-1.5346,-1.5335,-1.5327,-1.5337,-1.533,-1.5331,-1.5333,-1.5322,-1.5347,-1.5341,-1.5327,-1.5306,-1.5339,-1.535,-1.5355,-1.5291,-1.529,-1.5289,-1.5289,0,0,-1.5394,-1.5379,-1.5383,-1.5381,-1.5372,-1.5376,-1.5386,-1.5386,-1.5389,-1.5386,-1.5393,-1.5399,-1.5386,-1.5385,-1.5373,-1.5382,-1.5412,-1.5367,-1.5367,-1.5376,-1.5439,-1.5449,-1.5455,-1.5402,-1.5403,-1.5404,-1.5439,0,-1.5429,-1.5443,-1.5429,-1.5447,-1.5452,-1.543,-1.5438,-1.5434,-1.5426,-1.543,-1.5421,-1.5425,-1.5408,-1.5407,-1.5415,-1.5407,-1.5424,-1.5404,-1.541,-1.541,-1.5412,-1.5461,-1.5472,-1.5506,-1.5443,-1.5444,-1.5445,0,-1.5471,-1.547,-1.5489,-1.5479,-1.548,-1.5488,-1.5487,-1.549,-1.5485,-1.5479,-1.5478,-1.5464,-1.5473,-1.5454,-1.5466,-1.5452,-1.5454,-1.545,-1.5451,-1.5451,-1.5429,-1.5462,-1.5516,-1.5521,-1.5451,-1.5451,-1.545,0,-1.5512,-1.5515,-1.5526,-1.5525,-1.5514,-1.5519,-1.5515,-1.5509,-1.551,-1.5509,-1.551,-1.551,-1.551,-1.5511,-1.5498,-1.5485,-1.5512,-1.5491,-1.5508,-1.5508,-1.5514,-1.5514,-1.5569,-1.5515,-1.5515,-1.5515,-1.5515,0,-1.5552,-1.5565,-1.5544,-1.5551,-1.5564,-1.5547,-1.5561,-1.5555,-1.5549,-1.5555,-1.5537,-1.5543,-1.5525,-1.5529,-1.5519,-1.5531,-1.5531,-1.5526,-1.5524,-1.5528,-1.5529,-1.5529,-1.5526,-1.5516,-1.5516,-1.5516,-1.5516,0,-1.56,-1.5586,-1.5597,-1.5586,-1.5583,-1.5594,-1.5584,-1.559,-1.5581,-1.5589,-1.559,-1.5576,-1.558,-1.5567,-1.5568,-1.5562,-1.5579,-1.5572,-1.5581,-1.5579,-1.5596,-1.5595,-1.5653,-1.566,-1.5602,-1.5602,-1.5603,0,-1.5627,-1.5635,-1.5625,-1.5627,-1.5624,-1.5628,-1.5629,-1.5612,-1.5614,-1.5609,-1.5616,-1.5618,-1.5619,-1.5627,-1.5617,-1.5619,-1.5612,-1.5632,-1.5612,-1.5616,-1.5612,-1.5612,-1.5613,-1.5637,-1.5637,-1.5638,-1.5638,0,-1.5676,-1.5669,-1.5671,-1.567,-1.5672,-1.5671,-1.5668,-1.5671,-1.5654,-1.5657,-1.566,-1.5661,-1.5663,-1.5666,-1.5665,-1.5661,-1.5647,-1.5645,-1.5649,-1.5654,-1.5658,-1.5656,-1.5593,-1.5644,-1.5643,-1.5643,-1.5642,-1.5642,-1.5714,-1.5721,-1.5714,-1.5717,-1.5714,-1.5712,-1.5717,-1.5709,-1.5712,-1.5711,-1.5702,-1.5708,-1.5702,-1.57,-1.5698,-1.5702,-1.5693,-1.5698,-1.57,-1.5701,-1.5704,-1.5657,-1.5702,-1.5702,-1.5701,-1.5701,-1.5701,0,-1.5763,-1.5757,-1.576,-1.5757,-1.5759,-1.5745,-1.5742,-1.5745,-1.575,-1.5747,-1.5748,-1.5752,-1.5755,-1.5745,-1.5747,-1.5752,-1.5746,-1.5753,-1.5753,-1.5752,-1.5713,-1.5709,-1.5758,-1.5758,-1.5758,-1.5758,-1.5758,-1.5758,-1.5788,-1.5799,-1.5792,-1.5801,-1.5796,-1.5801,-1.58,-1.5799,-1.5796,-1.5801,-1.5803,-1.5797,-1.5791,-1.5792,-1.5794,-1.5791,-1.5792,-1.5802,-1.5797,-1.576,-1.5755,-1.5749,-1.5746,-1.5802,-1.5802,-1.5836,-1.5836,-1.5836]},{"header":{"parameterUnit":"m.s-1","parameterCategory":1,"la1":30.2991,"la2":30.254,"lo1":-89.0895,"lo2":-89.0444,"dy":0.0017,"dx":0.0017,"nx":28,"ny":28,"refTime":"2024-04-30T21:00:00:Z","depth":0,"parameterNumber":3,"parameterNumberName":"V-component_of_WINDS"},"data":[0,0,0,0,0,0,0,0,0,0,0,0,0,0,0,0,0,0,0,0,0,0,0,0,0,0,0,0,0,0,0,0,0,0,0,0,0,0,0,0,0,0,0,0,0,0,0,0,0,0,0,0,0,0,0,0,0,0,2.9944,2.9944,0,2.9928,2.9928,2.9928,2.9869,2.9868,2.9866,2.9865,2.9851,2.9851,2.9852,0,0,0,0,0,0,0,0,0,0,0,0,0,2.9924,2.9925,2.9944,2.9944,2.9943,2.9928,2.9928,2.9928,2.9869,2.9868,2.9866,2.9864,2.985,2.9851,2.9852,0,0,0,0,0,0,0,0,0,0,0,0,0,2.9923,2.9925,2.9944,2.9912,2.9909,2.9928,2.9928,2.9928,2.987,2.9868,2.9866,2.9864,2.985,2.9851,2.9852,2.9901,0,0,2.9856,2.9857,0,0,0,0,0,0,0,0,2.9923,2.9924,2.9917,2.9915,2.9911,2.9898,2.9916,2.9919,2.987,2.9885,2.9865,2.9863,2.9868,2.9868,2.9869,2.99,2.9899,2.9857,2.9857,2.9858,2.9858,0,0,0,0,0,0,0,2.9924,2.9924,2.9938,2.9917,2.9914,2.9899,2.9897,2.9916,2.9888,2.9883,2.9879,2.9878,2.9866,2.9868,2.9869,2.9899,2.9857,2.9858,2.9858,2.9859,2.9969,2.9971,0,0,0,0,0,0,2.9928,2.9925,2.9938,2.9937,2.9912,2.9901,2.9899,2.9905,2.9888,2.9883,2.988,2.9875,2.9867,2.9867,2.9868,2.9923,2.9858,2.9859,2.986,2.9966,2.9969,2.9971,0,0,0,0,0,0,2.9928,2.993,2.9939,2.993,2.993,2.9904,2.9911,2.9905,2.9907,2.9885,2.988,2.9887,2.9865,2.9866,2.9893,2.9922,2.986,2.9861,2.9964,2.9967,2.997,3.0034,0,0,0,0,0,0,2.9927,2.993,2.9948,2.9931,2.9931,2.9964,2.9913,2.9907,2.991,2.9904,2.989,2.9886,2.9864,2.9891,2.9894,2.9922,2.9862,2.9961,2.9965,2.9969,3.0029,3.0039,3.0047,0,0,0,0,0,2.9927,2.9967,2.9949,2.9951,2.9952,2.9965,2.9965,2.9939,2.9912,2.993,2.9915,2.9886,2.9918,2.9894,2.9897,2.9926,2.9959,2.9964,2.9969,3.0025,3.0037,3.0047,0,0,0,0,0,0,2.9989,2.9964,2.9944,2.9979,2.9975,2.9956,2.9977,2.9952,2.9956,2.995,2.9917,2.9915,2.9946,2.9939,2.9913,2.9972,2.9934,2.9939,2.9976,2.9987,2.9996,2.9997,2.9863,0,0,0,0,0,3.0006,3.0019,2.9997,3.003,3.0029,3.0004,3.0008,2.9988,2.9982,2.998,2.9968,2.9964,2.9973,2.9979,2.9986,3.0028,3.0024,3.0049,3.0058,3.0066,3.0071,3.0092,3.0103,2.9987,2.9987,2.9987,0,0,3.0043,3.0031,3.0041,3.0042,3.0036,3.005,3.0002,3.0019,3.0029,2.9983,3.0007,2.9998,2.9992,3.0026,3.004,3.0021,3.0102,3.0072,3.0078,3.0079,3.0098,3.0109,3.0119,2.999,2.999,2.9989,0,0,3.0117,3.0109,3.0136,3.0131,3.0122,3.0105,3.0112,3.0096,3.0088,3.0112,3.0077,3.0089,3.0105,3.0102,3.0102,3.0175,3.0148,3.0178,3.0225,3.0247,3.0256,3.0264,3.0289,3.0299,3.0183,3.0184,3.0184,0,3.0164,3.0183,3.0153,3.0172,3.0173,3.0131,3.0158,3.0155,3.015,3.0152,3.013,3.0149,3.0142,3.0175,3.0192,3.0194,3.0201,3.0179,3.0257,3.0264,3.0271,3.0295,3.0305,3.0187,3.0187,3.0186,3.0186,0,3.024,3.0254,3.0277,3.0272,3.0276,3.0299,3.0273,3.0281,3.026,3.0246,3.0271,3.026,3.0264,3.0271,3.0251,3.0301,3.0289,3.0262,3.0223,3.0286,3.0309,3.0318,3.0192,3.0191,3.019,3.0189,0,0,3.0353,3.0331,3.034,3.0337,3.0324,3.0334,3.0356,3.0359,3.0366,3.0364,3.0381,3.0396,3.0371,3.0371,3.0351,3.037,3.0427,3.0341,3.034,3.0357,3.0481,3.0501,3.0512,3.041,3.0412,3.0413,3.0482,0,3.0423,3.0457,3.043,3.0469,3.0482,3.0442,3.0461,3.0455,3.0442,3.0451,3.0437,3.0448,3.0414,3.0414,3.0431,3.0417,3.0452,3.0412,3.0426,3.0426,3.0428,3.0524,3.0545,3.0611,3.049,3.0492,3.0493,0,3.0509,3.051,3.055,3.0534,3.0539,3.0555,3.0556,3.0565,3.0558,3.0548,3.0548,3.0523,3.0543,3.0505,3.0532,3.0505,3.0509,3.0504,3.0505,3.0506,3.0463,3.0527,3.0631,3.0641,3.0506,3.0505,3.0504,0,3.0587,3.0598,3.0623,3.0622,3.0605,3.0617,3.0611,3.0602,3.0606,3.0607,3.0609,3.0612,3.0614,3.0618,3.0595,3.0569,3.0625,3.0585,3.0617,3.0618,3.063,3.063,3.0737,3.0634,3.0633,3.0633,3.0633,0,3.0667,3.0694,3.0658,3.0673,3.0701,3.0671,3.07,3.0689,3.0681,3.0695,3.0661,3.0674,3.0642,3.0653,3.0635,3.066,3.0661,3.0653,3.0648,3.0656,3.0657,3.0658,3.0653,3.0636,3.0635,3.0635,3.0634,0,3.0759,3.0736,3.0761,3.0742,3.0738,3.0759,3.0744,3.0757,3.0742,3.0759,3.0761,3.0738,3.0748,3.0725,3.0732,3.0719,3.0755,3.0743,3.0758,3.0754,3.0787,3.0784,3.0898,3.0912,3.08,3.0801,3.0802,0,3.0812,3.0831,3.0814,3.082,3.0815,3.0825,3.0829,3.08,3.0804,3.0798,3.0813,3.082,3.0824,3.0842,3.0826,3.0831,3.0818,3.0858,3.0819,3.0826,3.0819,3.0818,3.082,3.0866,3.0867,3.0869,3.0869,0,3.0909,3.0896,3.0902,3.0903,3.0908,3.0908,3.0906,3.0913,3.0882,3.089,3.0899,3.0902,3.0909,3.0916,3.0918,3.0912,3.0886,3.0882,3.0889,3.0898,3.0905,3.0902,3.0779,3.0879,3.0878,3.0878,3.0877,3.0877,3.0982,3.0997,3.0987,3.0995,3.099,3.0989,3.1,3.0986,3.0993,3.0996,3.0979,3.0992,3.0985,3.0984,3.098,3.099,3.0973,3.0984,3.0986,3.099,3.0995,3.0904,3.0991,3.099,3.099,3.099,3.099,0,3.1077,3.1068,3.1075,3.1073,3.1079,3.1053,3.105,3.1056,3.1068,3.1063,3.1068,3.1079,3.1086,3.107,3.1075,3.1086,3.1074,3.1088,3.1087,3.1086,3.1011,3.1004,3.1098,3.1098,3.1098,3.1098,3.1098,3.1098,3.1127,3.115,3.1137,3.1158,3.1149,3.1161,3.1161,3.116,3.1156,3.1169,3.1175,3.1164,3.1155,3.1158,3.1164,3.1159,3.1163,3.1181,3.1172,3.1102,3.1091,3.1081,3.1074,3.1182,3.1182,3.1246,3.1247,3.1247]}]]